Location: Lanoux
(43.1180°N, 1.4255°E)
Time: 20:50:58
(UTC+00:00)

Cosmos 2322 Rocket - Visible Passes

Search period start: 16 March 2026 00:00
Search period end: 26 March 2026 00:00
Orbit: 833 x 848 km, 71.0° (Epoch: 15 March)

Date Brightness Start Highest point End Pass type
(mag) Time Alt. Az. Time Alt. Az. Time Alt. Az.
16 Mar 4.8 01:50:24 14° N 01:50:24 14° N 01:51:13 10° N visible
17 Mar 4.8 01:35:10 13° N 01:35:10 13° N 01:35:52 10° N visible
18 Mar 4.9 01:19:55 13° N 01:19:55 13° N 01:20:29 10° N visible
19 Mar 5.0 01:04:38 12° N 01:04:38 12° N 01:05:07 10° N visible
20 Mar 5.0 00:49:20 12° N 00:49:20 12° N 00:49:44 10° N visible
21 Mar 5.0 00:34:01 12° N 00:34:01 12° N 00:34:22 10° NNE visible
22 Mar 5.0 00:18:40 11° N 00:18:40 11° N 00:18:58 10° NNE visible
23 Mar 5.0 00:03:17 11° NNE 00:03:17 11° NNE 00:03:35 10° NNE visible
23 Mar 5.0 23:47:52 12° NNE 23:47:52 12° NNE 23:48:12 10° NNE visible
24 Mar 5.0 23:32:26 12° NNE 23:32:26 12° NNE 23:32:48 10° NNE visible
25 Mar 4.9 23:16:56 12° NNE 23:16:56 12° NNE 23:17:25 10° NNE visible
